Location: Curupao
(10.4996°N, 66.6442°W)
Time: 11:46:49
(UTC+00:00)

IUS R/B (1) - Pass Details

Date: 23 May 2024
Orbit: 338 x 34265 km, 28.7° (Epoch: 20 June)

Event Time Altitude Azimuth Distance (km) Brightness Sun altitude
Rises 00:29:10 0° 313° (NW) 2,580 7.0 -24.6°
Reaches altitude 10° 00:30:31 10° 321° (NW) 2,008 6.1 -24.9°
Maximum altitude 00:34:26 47° 38° (NE) 1,544 4.4 -25.7°
Enters shadow 00:37:56 34° 86° (E) 2,764 5.4 -26.5°
